Location: Artiguedieu
(43.5000°N, 0.5454°E)
Time: 11:44:19
(UTC+00:00)

Meteor PRIRODA - Pass Details

Date: 06 December 2020
Orbit: 489 x 510 km, 97.6° (Epoch: 27 January)

Event Time Altitude Azimuth Distance (km) Brightness Sun altitude
Rises 05:20:55 0° 12° (NNE) 2,633 7.3 -20.2°
Reaches altitude 10° 05:23:01 10° 12° (NNE) 1,741 6.4 -19.8°
Maximum altitude 05:26:47 90° 331° (NNW) 516 3.6 -19.2°
Drops below altitude 10° 05:30:30 10° 194° (SSW) 1,720 6.3 -18.5°
Sets 05:32:34 0° 194° (SSW) 2,597 7.3 -18.2°
